Chicago DuPage, IL

11:46 AM CST on January 21, 2018 (GMT -0600)
Du Page

Weather History for KDPA - January, 2013

Change the Weather History Date:

Tuesday, January 22, 2013

  Actual Average Record
Temperature  
Mean Temperature 5 °F 23 °F  
Max Temperature 12 °F 31 °F 50 °F (2002)
Min Temperature -3 °F 15 °F -3 °F (2013)
Degree Days  
Heating Degree Days 60 42  
Month to date heating degree days 884 922  
Since 1 July heating degree days 3260 3349  
Cooling Degree Days 0 0  
Month to date cooling degree days 0 0  
Year to date cooling degree days 0 0  
Moisture  
Dew Point -6 °F    
Average Humidity 60    
Maximum Humidity 72    
Minimum Humidity 47    
Precipitation  
Precipitation T in 0.04 in 0.33 in (1999)
Month to date precipitation 0.84 0.90  
Year to date precipitation 0.84 0.90  
Sea Level Pressure  
Sea Level Pressure 30.37 in    
Wind  
Wind Speed 9 mph (WNW)    
Max Wind Speed 17 mph    
Max Gust Speed 22 mph    
Visibility 10 miles    
Events      
T = Trace of Precipitation, MM = Missing Value Source: NWS Daily Summary

Daily Weather History Graph

Daily Weather History Graph

Search for Another Location

Airport or City:

Trip Planner

Search our weather history database for the weather conditions in past years. The results will help you decide how hot, cold, wet, or windy it might be!

Date:

Astronomy

Jan. 22, 2013 Rise Set
Actual Time 7:14 AM CST 4:55 PM CST
Civil Twilight 6:43 AM CST 5:26 PM CST
Nautical Twilight 6:09 AM CST 6:00 PM CST
Astronomical Twilight 5:36 AM CST 6:33 PM CST
Moon 1:17 PM CST (1/22) 3:36 AM CST (1/22)
Length of Visible Light 10h 42m
Length of Day
9h 41m
Waxing Gibbous, 83% of the Moon is Illuminated
Jan 22
Waxing Gibbous
Jan 26
Full
Feb 3
Last Quarter
Feb 10
New
Feb 17
First Quarter

Hourly Weather History & Observations

Time (CST) Temp. Windchill Dew Point Humidity Pressure Visibility Wind Dir Wind Speed Gust Speed Precip Events Conditions
12:52 AM 1.9 °F -13.8 °F -7.1 °F 66% 30.30 in 10.0 mi WNW 10.4 mph - N/A   Partly Cloudy
1:52 AM 1.0 °F -10.3 °F -7.1 °F 69% 30.32 in 10.0 mi NW 5.8 mph - N/A   Partly Cloudy
2:52 AM -0.0 °F -14.2 °F -8.0 °F 69% 30.33 in 10.0 mi WNW 8.1 mph - N/A   Clear
3:52 AM -0.0 °F -11.6 °F -7.1 °F 72% 30.34 in 10.0 mi NW 5.8 mph - N/A   Clear
4:52 AM -2.0 °F -13.9 °F -9.0 °F 72% 30.35 in 10.0 mi WNW 5.8 mph - N/A   Clear
5:52 AM -2.0 °F -15.4 °F -9.0 °F 72% 30.37 in 10.0 mi WNW 6.9 mph - N/A   Clear
6:52 AM -2.9 °F -13.3 °F -9.9 °F 72% 30.39 in 10.0 mi West 4.6 mph - N/A   Clear
7:52 AM -0.9 °F -15.3 °F -9.0 °F 69% 30.40 in 10.0 mi West 8.1 mph - N/A   Partly Cloudy
8:52 AM -0.0 °F -16.3 °F -8.0 °F 69% 30.41 in 10.0 mi West 10.4 mph - N/A   Clear
9:52 AM 1.9 °F -14.7 °F -8.0 °F 63% 30.42 in 10.0 mi West 11.5 mph 17.3 mph N/A   Clear
10:52 AM 5.0 °F -11.6 °F -7.1 °F 58% 30.41 in 10.0 mi West 12.7 mph - 0.00 in   Clear
11:52 AM 7.0 °F -9.8 °F -7.1 °F 53% 30.40 in 10.0 mi WSW 13.8 mph - 0.00 in   Clear
12:52 PM 9.0 °F -7.9 °F -7.1 °F 48% 30.38 in 10.0 mi West 15.0 mph 20.7 mph N/A   Clear
1:52 PM 10.9 °F -2.6 °F -6.0 °F 47% 30.37 in 10.0 mi West 10.4 mph 19.6 mph 0.00 in   Clear
2:52 PM 10.9 °F -4.1 °F -6.0 °F 47% 30.36 in 10.0 mi West 12.7 mph - 0.00 in   Clear
3:52 PM 10.0 °F -5.2 °F -5.1 °F 51% 30.36 in 10.0 mi West 12.7 mph - N/A   Clear
4:52 PM 9.0 °F -3.2 °F -5.1 °F 53% 30.36 in 10.0 mi West 8.1 mph - N/A   Clear
5:52 PM 9.0 °F -2.2 °F -4.0 °F 56% 30.36 in 10.0 mi WNW 6.9 mph - N/A   Clear
6:52 PM 10.0 °F -0.9 °F -4.0 °F 53% 30.36 in 10.0 mi WNW 6.9 mph - N/A   Clear
7:52 PM 10.0 °F -3.7 °F -4.0 °F 53% 30.36 in 10.0 mi WNW 10.4 mph - N/A   Partly Cloudy
8:52 PM 10.0 °F -3.7 °F -4.0 °F 53% 30.37 in 10.0 mi WNW 10.4 mph - N/A   Partly Cloudy
9:52 PM 10.0 °F -0.9 °F -4.0 °F 53% 30.36 in 10.0 mi WNW 6.9 mph - N/A   Overcast
10:52 PM 10.0 °F 0.4 °F -2.9 °F 56% 30.37 in 10.0 mi NW 5.8 mph - N/A   Mostly Cloudy
11:52 PM 10.0 °F -0.9 °F -2.9 °F 56% 30.37 in 10.0 mi WNW 6.9 mph - N/A   Overcast